x

9752695 - Esperanza, Pr (espp4) Weather Station

6:54am - Sat 25th Jun 2016 All times are AST. -4 hours from GMT.

  • Wind
    3mph, 6mph gusts
  • Sea Temp 83°f
  • Air Temp 79°f
  • Sea Pressure 1017.9mb
  • 9752695 - Esperanza, Pr
  • 9752695 - Esperanza, Pr

More Historic Weather Station data

Upgrade to MSW Pro to gain access to the past 30 days of data for over 8000 Wavebouys and Weather Stations around the globe.

Join Pro

Comparision Forecast

View Surf forecast
   
Sat 06/25 6:54am 3 6 mph 1017.9mb 83f 79f
6:48am 1 5 mph 1017.8mb 83f 79f
6:42am 2 5 mph 1017.8mb 83f 79f
6:36am 1 5 mph 1017.8mb 83f 78f
6:30am 1 5 mph 1017.8mb 83f 78f
6:24am 2 3 mph 1017.7mb 83f 78f
6:18am 2 3 mph 1017.7mb 83f 78f
6:12am 2 3 mph 1017.7mb 83f 78f
6:06am 2 5 mph 1017.7mb 83f 78f
6:00am 2 6 mph 1017.6mb 83f 78f
5:54am 2 6 mph 1017.5mb 83f 79f
5:48am 2 5 mph 1017.4mb 83f 79f
5:42am 2 5 mph 1017.3mb 83f 79f
5:36am 2 5 mph 1017.3mb 83f 79f
5:30am 3 7 mph 1017.3mb 83f 79f
5:24am 3 6 mph 1017.3mb 83f 79f
5:18am 2 6 mph 1017.3mb 83f 79f
5:12am 2 6 mph 1017.3mb 83f 79f
5:06am 2 8 mph 1017.3mb 83f 79f
5:00am 2 8 mph 1017.3mb 83f 80f
4:54am 5 8 mph 1017.3mb 83f 80f
4:48am 5 7 mph 1017.2mb 83f 79f
4:42am 3 6 mph 1017.2mb 83f 79f
4:36am 2 6 mph 1017.1mb 83f 78f
4:30am 1 6 mph 1017.1mb 83f 78f
4:24am 2 6 mph 1017.1mb 83f 78f
4:18am 2 5 mph 1017mb 83f 78f
4:12am 2 5 mph 1017.1mb 83f 78f
4:06am 2 5 mph 1017.1mb 83f 78f
4:00am 2 6 mph 1017mb 83f 78f
3:54am 2 5 mph 1017.1mb 83f 78f
3:48am 2 5 mph 1017.2mb 83f 78f
3:42am 2 5 mph 1017.2mb 83f 78f
3:36am 2 3 mph 1017.2mb 83f 79f
3:30am 2 5 mph 1017.2mb 83f 79f
3:24am 2 5 mph 1017.2mb 83f 79f
3:18am 2 7 mph 1017.2mb 83f 79f
3:12am 2 3 mph 1017.2mb 83f 79f
3:06am 3 6 mph 1017.3mb 83f 79f
3:00am 1 3 mph 1017.2mb 84f 79f
2:54am 2 5 mph 1017.3mb 84f 79f
2:48am 2 3 mph 1017.3mb 84f 79f
2:42am 2 3 mph 1017.4mb 84f 79f
2:36am 1 3 mph 1017.5mb 84f 79f
2:30am 2 3 mph 1017.5mb 84f 79f
2:24am 1 3 mph 1017.5mb 84f 79f
2:18am  -  mph 1017.6mb 84f 79f
2:12am  -  mph 1017.6mb 84f 79f
2:06am  -  mph 1017.7mb 84f 79f
2:00am 1 3 mph 1017.7mb 84f 79f
1:54am 2 5 mph 1017.7mb 84f 79f
1:48am  -  mph 1017.7mb 84f 79f
1:42am  -  mph 1017.7mb 84f 79f
1:36am  -  mph 1017.8mb 84f 79f
1:30am 2 5 mph 1017.9mb 84f 79f
1:24am 2 3 mph 1018mb 84f 79f
1:18am 1 3 mph 1018mb 84f 79f
1:12am 1 3 mph 1018mb 84f 79f
1:06am 2 3 mph 1018.1mb 84f 79f
1:00am 2 3 mph 1018.2mb 84f 79f
12:54am 1 3 mph 1018.2mb 84f 79f
12:48am 2 5 mph 1018.3mb 84f 79f
12:42am 2 5 mph 1018.4mb 84f 79f
12:36am 2 5 mph 1018.5mb 84f 79f
12:30am 2 5 mph 1018.6mb 84f 79f
12:24am 2 5 mph 1018.7mb 84f 79f
12:18am 2 5 mph 1018.8mb 84f 79f
12:12am 2 3 mph 1018.9mb 84f 79f
12:06am 2 5 mph 1019mb 84f 80f
12:00am 2 5 mph 1019mb 84f 80f
Fri 06/24 11:54pm 2 5 mph 1019.1mb 84f 80f
11:48pm  -  mph 1019.2mb 84f -
11:42pm  -  mph 1019.2mb 84f -
11:36pm  -  mph 1019.3mb 84f -
11:30pm 3 6 mph 1019.5mb 84f 80f
11:24pm 2 5 mph 1019.6mb 84f 80f
11:18pm 2 6 mph 1019.6mb 84f 80f
11:12pm 3 7 mph 1019.7mb 84f 80f
11:06pm 2 5 mph 1019.7mb 84f 80f
11:00pm  -  mph 1019.7mb 84f -
10:54pm  -  mph 1019.7mb 84f -
10:48pm 3 7 mph 1019.7mb 84f -
10:42pm 5 8 mph 1019.8mb 84f -
10:36pm 3 7 mph 1019.8mb 84f -
10:30pm  -  mph 1019.8mb 84f -
10:24pm  -  mph 1019.7mb 84f -
10:18pm  -  mph - 84f 81f
10:12pm  -  mph - 84f 81f
10:06pm  -  mph - 84f 81f
10:00pm 3 7 mph - 84f -
9:54pm 3 8 mph - 84f -
9:48pm  -  mph 1019.6mb 84f -
9:42pm  -  mph 1019.6mb 84f -
9:36pm  -  mph 1019.6mb 84f -
9:30pm  -  mph 1019.6mb 84f 81f
9:24pm  -  mph 1019.5mb 84f 81f
9:18pm  -  mph 1019.5mb 84f 82f
9:12pm  -  mph 1019.4mb 84f 81f
9:06pm  -  mph 1019.4mb 85f 81f
9:00pm  -  mph 1019.3mb 85f 81f
8:54pm  -  mph 1019.3mb 85f 81f
8:48pm  -  mph 1019.2mb 85f -
8:42pm  -  mph 1019.2mb 85f -
8:36pm  -  mph 1019.1mb 85f -
8:30pm  -  mph 1019.1mb 85f -
8:24pm  -  mph 1019mb 85f -
8:18pm  -  mph 1019mb 85f 81f
8:12pm  -  mph 1018.9mb 85f 82f
8:06pm  -  mph 1019mb 85f 82f
8:00pm  -  mph 1018.9mb 85f -
7:54pm  -  mph 1018.9mb 85f -
7:48pm  -  mph 1018.8mb 85f -
7:42pm  -  mph 1018.7mb 85f -
7:36pm  -  mph 1018.6mb 85f -
7:30pm  -  mph 1018.6mb - 83f
7:24pm  -  mph 1018.6mb - 83f
7:18pm  -  mph 1018.6mb 85f 83f
7:12pm  -  mph 1018.5mb 85f 83f
7:06pm  -  mph 1018.5mb 85f 83f
7:00pm  -  mph 1018.5mb 85f -
6:54pm  -  mph 1018.4mb 85f -
6:48pm  -  mph - 85f -
6:42pm  -  mph - 85f -
6:36pm  -  mph - 85f -
6:30pm  -  mph 1018.2mb 85f -
6:24pm  -  mph 1018.2mb 85f -
6:18pm  -  mph 1018.2mb 85f 83f
6:12pm  -  mph 1018.1mb 85f 83f
6:06pm  -  mph 1018.1mb 85f 83f
6:00pm 9 14 mph - - -
5:54pm 7 10 mph - - -
5:48pm  -  mph - 85f 83f
5:42pm  -  mph - 85f 84f
5:36pm  -  mph - 85f 84f
5:30pm 9 14 mph 1018mb 85f 84f
5:24pm 9 14 mph 1018mb 85f 84f
5:18pm 10 15 mph 1017.9mb 85f 84f
5:12pm 9 15 mph 1017.8mb 85f 84f
5:06pm 11 15 mph 1017.9mb 85f 84f
5:00pm 9 14 mph 1017.9mb 85f 84f
4:54pm 8 13 mph 1017.9mb 85f 84f
4:48pm 9 14 mph 1017.9mb 85f 84f
4:42pm 6 13 mph 1017.8mb 85f 85f
4:36pm 7 11 mph 1017.9mb 85f 85f
4:30pm 8 13 mph 1017.9mb 85f 85f
4:24pm 8 14 mph 1017.9mb 85f 85f
4:18pm 8 16 mph 1017.9mb 85f 84f
4:12pm 11 14 mph 1017.9mb 85f 84f
4:06pm 9 14 mph 1018mb 85f 84f
4:00pm 8 14 mph 1017.9mb 85f 85f
3:54pm 9 15 mph 1017.9mb 85f 84f
3:48pm 11 15 mph 1018mb 85f 84f
3:42pm 8 13 mph 1018mb 85f 85f
3:36pm 9 14 mph 1018mb 85f 85f
3:30pm 9 15 mph 1018.1mb 85f -
3:24pm 8 15 mph 1018.1mb 85f -
3:18pm 10 13 mph 1018mb 85f 85f
3:12pm 9 16 mph 1018mb 85f 85f
3:06pm 9 14 mph 1018mb 85f 84f
3:00pm 11 15 mph 1018.1mb 85f 84f
2:54pm 9 17 mph 1018.1mb 85f 85f
2:48pm 10 17 mph 1018.2mb 85f 84f
2:42pm 9 15 mph 1018.3mb 85f 85f
2:36pm 9 16 mph 1018.3mb 85f 85f
2:30pm 8 13 mph 1018.4mb 85f 85f
2:24pm 9 14 mph 1018.5mb 85f 84f
2:18pm 10 15 mph 1018.6mb 85f 84f
2:12pm 9 15 mph 1018.7mb 85f 84f
2:06pm 11 16 mph 1018.8mb 85f 84f
2:00pm 11 14 mph 1018.8mb 85f 84f
1:54pm 11 16 mph 1018.8mb 85f 84f
1:48pm 11 15 mph 1018.8mb 85f 84f
1:42pm 11 16 mph 1018.8mb 85f 84f
1:36pm 8 14 mph 1018.9mb 85f 84f
1:30pm 9 17 mph 1018.9mb 85f 84f
1:24pm 10 15 mph 1018.8mb 85f 84f
1:18pm 13 16 mph 1018.9mb 85f 84f
1:12pm 11 15 mph 1018.9mb 85f 84f
1:06pm 9 15 mph 1019mb 85f 85f
1:00pm 9 14 mph 1019.1mb 85f 85f
12:54pm 10 14 mph 1019.1mb 85f 84f
12:48pm 10 15 mph 1019.2mb 85f 84f
12:42pm 9 17 mph 1019.2mb 85f 84f
12:36pm 10 15 mph 1019.3mb 85f 84f
12:30pm 11 15 mph 1019.3mb 85f 84f
12:24pm 11 16 mph 1019.3mb 85f 84f
12:18pm 11 17 mph 1019.3mb 84f 84f
12:12pm 10 15 mph 1019.2mb 84f 85f
12:06pm 8 15 mph 1019.3mb 84f 86f
12:00pm 8 13 mph 1019.3mb 84f 85f
11:54am 8 14 mph 1019.4mb 84f 85f
11:48am 10 16 mph 1019.4mb 84f 84f
11:42am 11 15 mph 1019.5mb 84f 84f
11:36am 13 16 mph 1019.5mb 84f 84f
11:30am 10 16 mph 1019.5mb 84f 84f
11:24am 9 14 mph 1019.5mb 84f 84f
11:18am 10 15 mph 1019.5mb 84f 84f
11:12am 9 15 mph 1019.6mb 84f 84f
11:06am 9 14 mph 1019.6mb 84f 84f
11:00am 11 16 mph 1019.6mb 84f 84f
10:54am 9 15 mph 1019.6mb 84f 84f
10:48am 10 17 mph 1019.6mb 84f 84f
10:42am 10 16 mph 1019.5mb 84f 84f
10:36am 10 16 mph 1019.5mb 83f 84f
10:30am 13 17 mph 1019.5mb 83f 84f
10:24am 14 18 mph 1019.5mb 83f 84f
10:18am 14 16 mph 1019.6mb 83f 84f
10:12am 11 16 mph 1019.6mb 83f 84f
10:06am 10 17 mph 1019.6mb 83f 84f
10:00am 10 17 mph 1019.6mb 83f 84f
9:54am 15 18 mph 1019.6mb 83f 83f
9:48am 10 14 mph 1019.5mb 83f 84f
9:42am 10 15 mph 1019.5mb 83f 84f
9:36am 11 20 mph 1019.4mb 83f 84f
9:30am 10 16 mph 1019.3mb 83f 84f
9:24am 11 17 mph 1019.2mb 83f 84f
9:18am 11 17 mph 1019.2mb 83f 84f
9:12am 9 14 mph 1019.2mb 83f 84f
9:06am 10 17 mph 1019.1mb 82f 84f
9:00am 11 16 mph 1019.1mb 82f 84f
8:54am 8 13 mph 1019.1mb 82f 84f
8:48am 10 15 mph 1019.1mb 82f 83f
8:42am 10 15 mph 1019mb 82f 83f
8:36am 11 17 mph 1018.9mb 82f 83f
8:30am 9 13 mph 1018.9mb 82f 83f
8:24am 9 15 mph 1018.8mb 82f 84f
8:18am 8 14 mph 1018.8mb 82f 83f
8:12am 9 16 mph 1018.8mb 82f 83f
8:06am 10 16 mph 1018.7mb 82f 83f
8:00am 9 14 mph 1018.7mb 82f 83f
7:54am 8 16 mph 1018.7mb 82f 84f
7:48am 11 16 mph 1018.7mb 82f 83f
7:42am 10 15 mph 1018.6mb 82f 83f
7:36am 11 17 mph 1018.6mb 82f 83f
7:30am 15 20 mph - 82f 83f
7:24am 9 18 mph - 82f 83f
7:18am 15 17 mph 1018.5mb 82f 83f
7:12am 9 16 mph 1018.5mb 82f 83f
7:06am 11 15 mph 1018.5mb 82f 82f
7:00am 10 15 mph 1018.5mb 82f 82f
6:54am 11 15 mph 1018.4mb 82f 82f
6:48am 11 16 mph 1018.3mb 82f 82f
6:42am 9 15 mph 1018.4mb 82f 82f
6:36am 8 14 mph 1018.4mb 82f 82f
6:30am 9 16 mph 1018.3mb 83f 82f
6:24am 9 16 mph 1018.3mb 83f 82f
6:18am 9 14 mph 1018.2mb 83f 82f
6:12am 9 15 mph 1018mb 83f 82f
6:06am 8 13 mph 1018mb 82f 82f
6:00am 10 15 mph 1018mb 82f 82f
5:54am 11 16 mph 1017.9mb 83f 82f
5:48am 11 17 mph 1017.9mb 83f 82f
5:42am 10 15 mph 1017.8mb 83f 82f
5:36am 11 20 mph 1017.7mb 83f 82f
5:30am 10 16 mph 1017.7mb 83f 82f
5:24am 9 14 mph 1017.7mb 83f 82f
5:18am 11 15 mph 1017.7mb 83f 82f
5:12am 10 15 mph 1017.7mb 83f 82f
5:06am 10 15 mph 1017.8mb 83f 82f
5:00am 10 14 mph 1017.9mb 84f 82f
4:54am 10 14 mph 1018mb 84f 82f
4:48am 9 14 mph 1018.1mb 84f 82f
4:42am 9 16 mph 1018.1mb 84f 82f
4:36am 8 14 mph 1018.1mb 84f 82f
4:30am 9 16 mph 1018.1mb 84f 82f
4:24am 8 11 mph 1018.2mb 84f 81f
4:18am 8 11 mph 1018.3mb 84f 81f
4:12am 6 10 mph 1018.2mb 84f 81f
4:06am 8 14 mph 1018.2mb 84f 81f
4:00am 8 11 mph 1018.2mb 84f 81f
3:54am 8 13 mph 1018.1mb 84f 81f
3:48am 7 13 mph 1018.1mb 84f 81f
3:42am 5 11 mph 1018.1mb 84f 80f
3:36am 6 9 mph 1018.2mb 84f 80f
3:30am 2 5 mph 1018.3mb 84f 79f
3:24am 2 3 mph 1018.3mb 84f 79f
3:18am 2 3 mph 1018.3mb 84f 78f
3:12am 2 3 mph 1018.3mb 84f 78f
3:06am 2 3 mph 1018.4mb 84f 78f
3:00am 1 3 mph 1018.5mb 84f 78f
2:54am 1 3 mph 1018.5mb 84f 79f
2:48am 2 3 mph 1018.5mb 84f 79f
2:42am 1 5 mph 1018.6mb 84f 79f
2:36am 1 5 mph 1018.5mb 84f 79f
2:30am 2 6 mph 1018.5mb 84f 79f
2:24am 2 7 mph 1018.6mb 84f 79f
2:18am  -  mph 1018.6mb 84f 79f
2:12am  -  mph 1018.5mb 84f 79f
2:06am  -  mph 1018.6mb 84f 79f
2:00am  -  mph 1018.6mb 84f 79f
1:54am  -  mph 1018.7mb 84f 79f
1:48am  -  mph 1018.7mb 84f 79f
1:42am  -  mph 1018.8mb 84f 79f
1:36am  -  mph 1018.8mb 84f 79f
1:30am 1 5 mph 1018.8mb 84f 79f
1:24am 2 5 mph 1018.8mb 84f 79f
1:18am 2 5 mph 1018.9mb 84f 79f
1:12am 1 5 mph 1019mb 84f 79f
1:06am 2 5 mph 1019mb 84f 79f
1:00am 3 6 mph 1019.1mb 84f 79f
12:54am 2 5 mph 1019.1mb 84f 79f
12:48am 3 8 mph 1019.1mb 84f 79f
12:42am 3 6 mph 1019.2mb 84f 79f
12:36am 2 5 mph 1019.4mb 84f 79f
12:30am 2 5 mph 1019.5mb 84f 79f
12:24am 2 5 mph 1019.6mb 84f 79f
12:18am 3 6 mph 1019.6mb 84f 79f
12:12am 2 5 mph 1019.7mb 84f 79f
12:06am 2 5 mph 1019.7mb 84f 79f
12:00am 2 5 mph 1019.8mb 84f 79f
Thu 06/23 11:54pm 2 5 mph 1019.8mb 84f 79f
11:48pm  -  mph 1019.8mb 84f -
11:42pm  -  mph 1019.9mb 84f -
11:36pm  -  mph 1019.9mb 84f -
11:30pm 2 6 mph 1020mb 84f 79f
11:24pm 2 5 mph 1020.1mb 84f 79f
11:18pm 2 5 mph 1020.1mb 84f 79f
11:12pm 2 5 mph 1020.1mb 84f 79f
11:06pm 2 6 mph 1020.1mb 84f 79f
11:00pm  -  mph 1020.1mb - -
10:54pm  -  mph 1020.2mb - -
10:48pm  -  mph 1020.2mb 84f -
10:42pm  -  mph 1020.2mb 84f -
10:36pm  -  mph 1020.2mb 84f -
10:30pm 2 5 mph 1020.2mb - -
10:24pm 1 3 mph 1020.2mb - -
10:18pm 2 6 mph 1020.2mb 84f -
10:12pm 2 7 mph 1020.1mb 84f -
10:06pm 2 7 mph 1020.1mb 84f -
10:00pm  -  mph 1020.1mb 84f -
9:54pm  -  mph 1020mb 84f -
9:48pm  -  mph 1020mb 84f -
9:42pm  -  mph 1019.9mb 84f -
9:36pm  -  mph 1019.9mb 84f -
9:30pm  -  mph 1019.9mb 84f -
9:24pm  -  mph 1019.9mb 84f -
9:18pm  -  mph 1019.9mb 84f 81f
9:12pm  -  mph 1019.8mb 84f 81f
9:06pm  -  mph 1019.8mb 84f 81f
9:00pm  -  mph 1019.7mb 84f -
8:54pm  -  mph 1019.8mb 84f -
8:48pm  -  mph 1019.8mb 84f -
8:42pm  -  mph 1019.8mb 84f -
8:36pm  -  mph 1019.7mb 84f -
8:30pm  -  mph 1019.5mb 84f -
8:24pm  -  mph 1019.4mb 84f -
8:18pm  -  mph 1019.4mb 84f 82f
8:12pm  -  mph 1019.4mb 85f 82f
8:06pm  -  mph 1019.4mb 85f 82f
8:00pm  -  mph 1019.4mb - -
7:54pm  -  mph 1019.2mb - -
7:48pm  -  mph 1019.1mb - -
7:42pm  -  mph 1019mb - -
7:36pm  -  mph 1018.9mb - -
7:30pm  -  mph 1018.8mb 85f -
7:24pm  -  mph 1018.8mb 85f -
7:18pm  -  mph 1018.6mb 85f 82f
7:12pm  -  mph 1018.6mb 85f 82f
7:06pm  -  mph 1018.5mb 85f 83f
7:00pm  -  mph 1018.5mb 85f -
6:54pm  -  mph 1018.3mb 84f -
6:48pm  -  mph 1018.3mb - -
6:42pm  -  mph 1018.3mb - -
6:36pm  -  mph 1018.3mb - -
6:30pm  -  mph 1018.2mb 84f -
6:24pm  -  mph 1018.2mb 85f -
6:18pm  -  mph 1018.2mb 85f 83f
6:12pm  -  mph 1018.2mb 85f 83f
6:06pm  -  mph 1018.1mb 85f 83f
6:00pm  -  mph 1018.1mb 85f -
5:54pm  -  mph 1018.1mb 85f -
5:48pm  -  mph 1018.1mb 85f 83f
5:42pm  -  mph 1018.1mb 85f 83f
5:36pm  -  mph 1018mb 85f 83f
5:30pm 10 17 mph 1018mb 85f 84f
5:24pm 9 14 mph 1018mb 85f 83f
5:18pm 11 17 mph 1018mb 85f 83f
5:12pm 13 15 mph 1018mb 85f 83f
5:06pm 10 16 mph 1017.9mb 85f 84f
5:00pm 11 17 mph 1017.9mb 85f 83f
4:54pm 10 17 mph 1017.9mb 85f 84f
4:48pm 10 15 mph 1017.9mb 85f 84f
4:42pm 10 16 mph 1017.9mb 85f 84f
4:36pm 13 16 mph 1017.9mb 85f 84f
4:30pm 11 16 mph 1017.9mb 85f 84f
4:24pm 11 20 mph 1017.9mb 85f 84f
4:18pm 13 20 mph 1017.8mb 85f 84f
4:12pm 11 20 mph 1017.9mb 85f 84f
4:06pm 13 20 mph 1017.8mb 85f 84f
4:00pm 13 20 mph 1017.8mb 85f 84f
3:54pm 10 20 mph 1017.9mb 85f 84f
3:48pm 11 17 mph 1017.9mb 85f 84f
3:42pm 9 16 mph 1017.9mb 85f 84f
3:36pm 11 21 mph 1018mb 85f 84f
3:30pm 13 21 mph 1018mb 85f 83f
3:24pm 10 16 mph 1018mb 85f 84f
3:18pm 10 16 mph 1018mb 85f 84f
3:12pm 13 17 mph 1018.1mb 85f 84f
3:06pm 13 17 mph 1018.3mb 85f 84f
3:00pm 11 18 mph 1018.3mb 85f 84f
2:54pm 11 16 mph 1018.4mb 85f 84f
2:48pm 13 16 mph 1018.4mb 85f 84f
2:42pm 11 16 mph 1018.4mb 85f 84f
2:36pm 14 18 mph 1018.5mb 85f 84f
2:30pm 10 20 mph 1018.5mb 85f 84f
2:24pm 13 17 mph 1018.5mb 85f 84f
2:18pm 11 20 mph 1018.5mb 85f 84f
2:12pm 13 17 mph 1018.6mb 85f 84f
2:06pm 13 17 mph 1018.6mb 85f 84f
2:00pm 13 18 mph 1018.7mb 85f 84f
1:54pm 10 17 mph 1018.6mb 85f 84f
1:48pm 11 16 mph 1018.7mb 85f 84f
1:42pm 13 17 mph 1018.8mb 85f 84f
1:36pm 15 20 mph 1018.8mb 85f 83f
1:30pm 10 17 mph 1018.9mb 85f 84f
1:24pm 11 17 mph 1019mb 85f 83f
1:18pm 13 17 mph 1019mb 85f 83f
1:12pm 10 16 mph 1019.1mb 85f 84f
1:06pm 11 17 mph 1019.1mb 85f 84f
1:00pm 15 16 mph 1019.2mb 85f -
12:54pm 10 17 mph 1019.3mb 85f -
12:48pm 10 15 mph 1019.3mb 85f 84f
12:42pm 11 15 mph 1019.4mb 85f 84f
12:36pm 10 17 mph 1019.5mb 85f 84f
12:30pm 14 18 mph 1019.5mb 85f 83f
12:24pm 13 18 mph 1019.5mb 84f 83f
12:18pm 10 14 mph 1019.6mb 84f 84f
12:12pm 10 16 mph 1019.7mb 84f 84f
12:06pm 11 16 mph 1019.6mb 84f 84f
12:00pm 9 14 mph 1019.6mb 84f 84f
11:54am 10 16 mph 1019.7mb 84f 84f
11:48am 11 15 mph 1019.7mb 84f 84f
11:42am 13 18 mph 1019.7mb 84f 84f
11:36am 10 17 mph 1019.7mb 84f 84f
11:30am  -  mph 1019.7mb 84f 84f
11:24am  -  mph 1019.7mb 84f 84f
11:18am 14 17 mph 1019.7mb 84f 84f
11:12am 11 18 mph 1019.8mb 83f 83f
11:06am 10 17 mph 1019.8mb 83f 84f
11:00am 11 18 mph 1019.9mb 83f 83f
10:54am 10 16 mph 1020mb 83f 84f
10:48am 11 15 mph 1020mb 83f 84f
10:42am 11 17 mph 1020.1mb 83f 84f
10:36am 11 17 mph 1020.1mb 83f 84f
10:30am 13 18 mph 1020mb 83f 84f
10:24am 11 16 mph 1020.1mb 83f 84f
10:18am 10 16 mph 1020.1mb 83f 84f
10:12am 11 17 mph 1020.1mb 83f 84f
10:06am 11 18 mph 1020.1mb 83f 83f
10:00am 13 17 mph 1020.1mb 83f 83f
9:54am 11 17 mph 1020.1mb 83f 83f
9:48am  -  mph 1020.1mb 83f 83f
9:42am  -  mph 1020.2mb 83f 84f
9:36am  -  mph 1020.2mb 83f 83f
9:30am 10 15 mph 1020.2mb 83f 83f
9:24am 9 15 mph 1020.2mb 83f 83f
9:18am 11 15 mph 1020.3mb 83f 83f
9:12am 8 17 mph 1020.3mb 83f 84f
9:06am 9 15 mph 1020.2mb 83f 84f
9:00am 9 16 mph 1020.2mb 82f 84f
8:54am 10 17 mph 1020mb 83f 83f
8:48am 8 17 mph 1020mb 82f 83f
8:42am 8 15 mph 1019.9mb 82f 84f
8:36am 10 17 mph 1020mb 82f 83f
8:30am 10 17 mph 1019.9mb 82f 83f
8:24am 11 16 mph 1019.9mb 82f 83f
8:18am 8 14 mph 1020mb 82f 83f
8:12am 9 14 mph 1020mb 82f 83f
8:06am 8 15 mph 1020mb 82f 83f
8:00am 9 14 mph 1020mb 82f 83f
7:54am 8 14 mph 1020mb 82f 83f
7:48am 11 16 mph 1019.9mb 82f 83f
7:42am 9 16 mph 1019.9mb 82f 82f
7:36am 8 14 mph 1019.9mb 82f 82f
7:30am 7 14 mph 1019.9mb 82f 83f
7:24am 10 14 mph 1019.9mb 82f 82f
7:18am 7 13 mph 1019.9mb 82f 82f
7:12am 6 9 mph 1019.8mb 82f 82f
6:54am 2 7 mph 1019.8mb 82f 81f
6:48am 3 7 mph 1019.7mb 82f 80f
6:42am 3 6 mph 1019.7mb 82f 80f
6:36am 2 7 mph 1019.6mb 82f 79f
6:30am 1 3 mph 1019.6mb 82f 78f
6:24am 1 5 mph 1019.6mb 82f 78f
6:18am 1 3 mph 1019.6mb 82f 78f
6:12am 2 3 mph 1019.5mb 82f 78f
6:06am 2 3 mph 1019.5mb 82f 77f
6:00am 2 5 mph 1019.5mb 82f 77f
5:54am 2 6 mph 1019.5mb 82f 77f
5:48am 1 6 mph 1019.4mb 82f 77f
5:42am 2 6 mph 1019.5mb 83f 77f
5:36am 2 5 mph 1019.5mb 83f 78f
5:30am 2 7 mph 1019.5mb 83f 78f
5:24am 3 6 mph 1019.5mb 83f 78f
5:18am 2 6 mph 1019.5mb 83f 78f
5:12am 2 5 mph 1019.5mb 83f 78f
5:06am 2 5 mph 1019.4mb 83f 78f
5:00am 2 5 mph 1019.5mb 83f 78f
4:54am 2 5 mph 1019.4mb 83f 78f
4:48am 2 5 mph 1019.4mb 83f 78f
4:42am 2 3 mph 1019.5mb 83f 78f
4:36am 2 5 mph 1019.6mb 83f 78f
4:30am 2 5 mph 1019.6mb 83f 78f
4:24am 2 6 mph 1019.6mb 83f 78f
4:18am 2 5 mph 1019.6mb 83f 78f
4:12am 2 5 mph 1019.6mb 83f 78f
4:06am 2 6 mph 1019.6mb 83f 78f
4:00am 3 8 mph 1019.5mb 83f 78f
3:54am 2 7 mph 1019.4mb 83f 78f
3:48am 2 8 mph 1019.4mb 83f 78f
3:42am 5 9 mph 1019.4mb 83f 79f
3:36am 3 9 mph 1019.4mb 83f 78f
3:30am 3 7 mph 1019.5mb 83f 78f
3:24am 2 6 mph 1019.5mb 83f 78f
3:18am 2 6 mph 1019.5mb 83f 78f
3:12am 2 3 mph 1019.6mb 83f 78f
3:06am 2 5 mph 1019.6mb 83f 78f
3:00am 2 5 mph 1019.7mb 83f 78f
2:54am 2 5 mph 1019.7mb 83f 78f
2:48am 2 5 mph 1019.8mb 83f 78f
2:42am 2 5 mph 1019.7mb 83f 78f
2:36am 2 3 mph 1019.8mb 83f 78f
2:30am  -  mph 1019.9mb 83f 78f
2:24am  -  mph 1019.9mb 83f 79f
2:18am 1 5 mph 1020mb 83f 79f
2:12am 3 6 mph 1020mb 83f 79f
2:06am 2 6 mph 1020mb 83f 79f
2:00am 3 6 mph 1020.1mb 83f 79f
1:54am 2 6 mph 1020.1mb 83f 79f
1:48am  -  mph 1020.2mb 83f 79f
1:42am  -  mph 1020.2mb 83f 80f
1:36am  -  mph 1020.3mb 83f 80f
1:30am 2 7 mph 1020.4mb 83f 80f
1:24am 6 10 mph 1020.5mb 83f 82f
1:18am 8 13 mph 1020.5mb 83f 82f
1:12am 9 15 mph 1020.6mb 83f 82f
1:06am 9 14 mph 1020.5mb 83f 81f
1:00am 6 13 mph 1020.5mb 83f 79f
12:54am 2 6 mph 1020.6mb 83f 78f
12:48am 3 6 mph 1020.7mb 84f 78f
12:42am 2 5 mph 1020.8mb 83f 78f
12:36am 2 5 mph 1020.9mb 83f 78f
12:30am 3 6 mph 1021mb 84f 79f
12:24am 3 6 mph 1021.1mb 84f 79f
12:18am 3 7 mph 1021.2mb 83f 79f
12:12am 2 7 mph 1021.3mb 84f 80f
12:06am 5 9 mph 1021.2mb 84f 80f
12:00am 7 11 mph 1021.1mb 84f 80f
Wed 06/22 11:54pm 5 10 mph 1021.1mb 84f 80f
11:48pm  -  mph 1021.1mb 84f -
11:42pm  -  mph 1021.1mb 84f -
11:36pm  -  mph 1021.1mb 84f -
11:30pm 10 15 mph 1021.1mb 84f 82f
11:24pm 9 16 mph 1021mb 84f 82f
11:18pm  -  mph 1021.1mb 84f 81f
11:12pm  -  mph 1021.1mb 84f 80f
11:06pm  -  mph 1021.2mb 84f 80f
11:00pm  -  mph 1021.2mb 84f -
10:54pm  -  mph 1021.2mb 84f -
10:48pm  -  mph 1021.1mb - 80f
10:42pm  -  mph 1021.1mb - 80f
10:36pm  -  mph 1021mb - 80f
10:30pm  -  mph 1021mb 84f -
10:24pm  -  mph 1020.9mb 84f -
10:18pm  -  mph 1020.8mb 84f 80f
10:12pm  -  mph 1020.7mb 84f 80f
10:06pm  -  mph 1020.5mb 84f 80f
10:00pm  -  mph - 84f 81f
9:54pm  -  mph - 84f 82f
9:48pm  -  mph 1020.3mb 84f -
9:42pm  -  mph 1020.2mb 84f -
9:36pm  -  mph 1020.1mb 84f -
9:30pm 10 16 mph 1020.1mb - -
9:24pm 9 14 mph 1020mb - -
9:18pm  -  mph 1020mb 84f 82f
9:12pm  -  mph 1019.9mb 84f 82f
9:06pm  -  mph 1019.9mb 84f 83f
9:00pm  -  mph - 84f 83f
8:54pm  -  mph - 84f 83f
8:48pm  -  mph 1019.8mb 84f 82f
8:42pm  -  mph 1019.7mb 84f 82f
8:36pm  -  mph 1019.6mb 84f 82f
8:30pm 9 15 mph - - -
8:24pm 8 14 mph - - -
8:18pm  -  mph 1019.5mb 84f -
8:12pm  -  mph 1019.4mb 84f -
8:06pm  -  mph 1019.4mb 84f -
8:00pm  -  mph - 84f -
7:54pm  -  mph - 85f -
7:48pm  -  mph 1019.1mb 85f -
7:42pm  -  mph 1019mb 85f -
7:36pm  -  mph 1019mb 85f -
7:30pm  -  mph 1019mb 85f -
7:24pm  -  mph 1018.9mb 85f -
7:18pm  -  mph 1018.8mb 85f 83f
7:12pm  -  mph 1018.8mb 85f 83f
7:06pm  -  mph 1018.8mb 85f 83f
7:00pm  -  mph 1018.8mb 84f -
6:54pm  -  mph 1018.7mb 84f -
6:48pm  -  mph 1018.8mb 84f 83f
6:42pm  -  mph 1018.7mb 84f 83f
6:36pm  -  mph 1018.7mb 84f 83f
6:30pm  -  mph 1018.7mb - -
6:24pm  -  mph 1018.6mb - -
6:18pm  -  mph 1018.6mb 84f -
6:12pm  -  mph 1018.5mb 84f -
6:06pm  -  mph 1018.5mb 84f -
6:00pm  -  mph 1018.5mb 84f -
5:54pm  -  mph 1018.5mb 84f -
5:48pm  -  mph - 84f -
5:42pm  -  mph - 84f -
5:36pm  -  mph - 84f -
5:30pm 14 18 mph 1018.4mb 84f 84f
5:24pm 13 16 mph 1018.4mb 84f 84f
5:18pm 13 18 mph 1018.4mb 84f 84f
5:12pm 11 17 mph 1018.3mb 84f 84f
5:06pm 13 18 mph 1018.2mb 84f 84f
5:00pm 11 20 mph 1018.1mb 84f 84f
4:54pm 11 16 mph 1018mb 84f 84f
4:48pm 13 18 mph 1018mb 85f 84f
4:42pm 13 20 mph 1018mb 85f 84f
4:36pm 13 20 mph 1018mb 85f 84f
4:30pm 13 20 mph 1018mb 85f 84f
4:24pm 14 18 mph 1018mb 85f 84f
4:18pm 14 18 mph 1018.1mb 85f 84f
4:12pm 15 18 mph 1018.1mb 85f 84f
4:06pm 13 20 mph 1018.2mb 85f 84f
4:00pm 13 18 mph 1018.2mb 85f 84f
3:54pm 11 16 mph 1018.3mb 84f 84f
3:48pm 16 21 mph 1018.3mb 85f 84f
3:42pm 13 18 mph 1018.4mb 85f 85f
3:36pm 11 18 mph 1018.4mb 85f 85f
3:30pm 15 20 mph 1018.5mb 85f 84f
3:24pm 11 18 mph 1018.5mb 84f 85f
3:18pm 14 18 mph 1018.5mb 85f 84f
3:12pm 14 21 mph 1018.5mb 85f 84f
3:06pm 14 21 mph 1018.5mb 85f 84f
3:00pm 11 20 mph 1018.6mb 85f 84f
2:54pm 11 20 mph 1018.6mb 85f 85f
2:48pm 14 21 mph 1018.6mb 85f 84f
2:42pm 14 21 mph 1018.6mb 85f 84f
2:36pm 15 20 mph 1018.7mb 85f 85f
2:30pm 14 21 mph 1018.8mb 85f 84f
2:24pm 14 18 mph 1018.8mb 85f 84f
2:18pm 14 20 mph 1018.8mb 85f 84f
2:12pm 14 21 mph 1019mb 85f 84f
2:06pm 14 18 mph 1019mb 85f 84f
2:00pm 11 22 mph 1019.2mb 85f 85f
1:54pm 14 20 mph 1019.2mb 85f 84f
1:48pm 15 21 mph 1019.3mb 85f 84f
1:42pm 11 20 mph 1019.3mb 85f 85f
1:36pm 11 21 mph 1019.3mb 85f 84f
1:30pm 14 22 mph 1019.5mb 85f 84f
1:24pm 14 21 mph 1019.5mb 85f 84f
1:18pm 16 21 mph 1019.5mb 85f 84f
1:12pm 10 16 mph 1019.6mb 85f 85f
1:06pm 14 22 mph 1019.6mb 84f 84f
1:00pm 16 24 mph 1019.6mb 84f 84f
12:54pm 14 20 mph 1019.6mb 84f 84f
12:48pm 13 20 mph 1019.6mb 84f 85f
12:42pm 15 21 mph 1019.7mb 84f 84f
12:36pm 14 18 mph 1019.7mb 84f 84f
12:30pm 14 21 mph 1019.7mb 84f 84f
12:24pm 11 21 mph 1019.7mb 84f 85f
12:18pm 13 20 mph 1019.7mb 84f 84f
12:12pm 14 21 mph 1019.6mb 84f 84f
12:06pm 14 20 mph 1019.7mb 84f 84f
12:00pm 13 20 mph 1019.7mb 84f 84f
11:54am 14 22 mph 1019.7mb 84f 84f
11:48am 11 21 mph 1019.7mb 84f 85f
11:42am 14 20 mph 1019.8mb 84f 84f
11:36am 14 20 mph 1019.9mb 84f 84f
11:30am 11 21 mph 1020mb 84f 85f
11:24am 13 22 mph 1020mb 84f 84f
11:18am 15 20 mph 1020mb 84f 84f
11:12am 14 21 mph 1020mb 84f 84f
11:06am 14 20 mph 1019.9mb 84f 84f
11:00am 11 22 mph 1019.9mb 83f 84f
10:54am 11 17 mph 1019.9mb 83f 85f
10:48am 11 21 mph 1020mb 83f 85f
10:42am 11 18 mph 1020mb 83f 84f
10:36am 13 21 mph 1020mb 83f 84f
10:30am 14 23 mph 1020mb 83f 84f
10:24am 14 18 mph 1020mb 83f 84f
10:18am 13 21 mph 1020mb 83f 84f
10:12am 11 20 mph 1020mb 83f 84f
10:06am 15 20 mph 1020mb 83f 84f
10:00am 11 22 mph 1020mb 83f 84f
9:54am 14 21 mph 1020.1mb 83f 83f
9:48am  -  mph - 83f -
9:42am  -  mph - 83f -
9:36am  -  mph - 83f -
9:30am 11 18 mph 1020mb 83f 83f
9:24am 10 16 mph 1019.9mb 83f 83f
9:18am 14 18 mph 1019.8mb 83f 83f
9:12am 14 18 mph 1019.8mb 83f 83f
9:06am 14 18 mph 1019.8mb 83f 83f
9:00am 11 20 mph 1019.8mb 83f 82f
8:54am 7 16 mph 1019.9mb 83f 82f
8:48am 13 17 mph 1020mb 83f 82f
8:42am 13 17 mph 1019.9mb 82f 83f
8:36am 11 17 mph 1019.9mb 82f 83f
8:30am 11 20 mph 1019.8mb 82f 83f
8:24am 11 18 mph 1019.7mb 82f 83f
8:18am 13 17 mph 1019.7mb 82f 83f
8:12am 13 17 mph 1019.6mb 82f 83f
8:06am 11 18 mph 1019.6mb 82f 83f
8:00am 13 18 mph 1019.6mb 82f 83f
7:54am 10 15 mph 1019.6mb 82f 83f
7:48am 10 17 mph 1019.6mb 82f 83f
7:42am 10 17 mph 1019.5mb 82f 83f
7:36am 13 21 mph 1019.5mb 82f 83f
7:30am 11 17 mph 1019.5mb 82f 83f
7:24am 11 16 mph 1019.4mb 82f 81f
7:18am 13 16 mph 1019.4mb 82f 81f
7:12am 14 18 mph 1019.4mb 82f 81f
7:06am 9 16 mph 1019.4mb 82f 83f
7:00am 9 16 mph 1019.3mb 82f 83f
6:54am 11 17 mph 1019.2mb 82f 83f
6:48am 10 17 mph 1019.1mb 82f 82f
6:42am 8 18 mph 1019.1mb 82f 82f
6:36am 13 18 mph 1018.9mb 82f 82f
6:30am 11 16 mph 1018.8mb 82f 82f
6:24am 11 16 mph 1018.8mb 82f 82f
6:18am 9 15 mph 1018.7mb 82f 82f
6:12am 9 16 mph 1018.7mb 82f 82f
6:06am 10 16 mph 1018.6mb 82f 82f
6:00am 10 15 mph 1018.5mb 82f 82f
5:54am 9 15 mph 1018.5mb 82f 82f
5:48am 10 15 mph 1018.6mb 82f 82f
5:42am 11 16 mph 1018.6mb 82f 82f
5:36am 11 18 mph 1018.6mb 83f 82f
5:30am 10 17 mph 1018.5mb 83f 82f
5:24am 11 14 mph 1018.5mb 83f 82f
5:18am 10 16 mph 1018.4mb 83f 82f
5:12am 9 18 mph 1018.4mb 83f 82f
5:06am 10 16 mph 1018.3mb 83f 82f
5:00am 10 15 mph 1018.3mb 83f 82f
4:54am 10 17 mph 1018.3mb 83f 82f
4:48am 10 17 mph 1018.3mb 83f 82f
4:42am 11 17 mph 1018.3mb 83f 82f
4:36am 10 17 mph 1018.3mb 83f 82f
4:30am 10 15 mph 1018.2mb 83f 82f
4:24am 9 14 mph 1018.1mb 83f 82f
4:18am 10 18 mph 1018.1mb 83f 82f
4:12am 13 15 mph 1018.1mb 83f 82f
4:06am 11 17 mph 1018.1mb 83f 82f
4:00am 15 21 mph 1018.1mb 83f 82f
3:54am 13 16 mph 1018.1mb 83f 82f
3:48am 11 17 mph 1018.1mb 83f 82f
3:42am 15 18 mph 1018.1mb 83f 82f
3:36am 15 21 mph 1018.2mb 83f 82f
3:30am 14 18 mph 1018.1mb 83f 82f
3:24am 14 17 mph 1018.1mb 83f 82f
3:18am 15 20 mph 1018.1mb 83f 81f
3:12am 16 21 mph 1018.2mb 83f 82f
3:06am 13 16 mph 1018.2mb 83f 80f
3:00am 13 20 mph 1018.3mb 83f 80f
2:54am 11 20 mph 1018.4mb 83f 79f
2:48am 20 22 mph 1018.4mb 83f -
2:42am 3 5 mph 1018.5mb 83f -
2:36am 3 7 mph 1018.4mb 83f -
2:30am 6 9 mph 1018.4mb 83f 79f
2:24am 3 8 mph 1018.4mb 83f 79f
2:18am 6 10 mph 1018.5mb 83f 79f
2:12am 8 13 mph 1018.5mb 83f 79f
2:06am 14 21 mph 1018.5mb 83f 79f
2:00am 10 14 mph 1018.4mb 83f 82f
1:54am 9 17 mph 1018.5mb 83f 82f
1:48am 11 17 mph 1018.6mb 83f 82f
1:42am 9 17 mph 1018.6mb 83f 82f
1:36am 9 15 mph 1018.6mb 83f 82f
1:30am 10 15 mph 1018.6mb 83f 82f
1:24am 9 15 mph 1018.5mb 83f 82f
1:18am 9 16 mph 1018.6mb 83f 82f
1:12am 8 18 mph 1018.7mb 83f 82f
1:06am 11 17 mph 1018.7mb 83f 82f
1:00am 10 17 mph 1018.8mb 83f 82f
12:54am 10 17 mph 1018.8mb 84f 82f
12:48am 11 16 mph 1018.7mb 84f 82f
12:42am 13 18 mph 1018.7mb 84f 82f
12:36am 11 16 mph 1018.6mb 84f 82f
12:30am 13 17 mph 1018.7mb 84f 82f
12:24am 10 17 mph 1018.7mb 84f 82f
12:18am 13 17 mph 1018.8mb 84f 82f
12:12am 11 17 mph 1018.9mb 84f 82f
12:06am 13 17 mph 1019mb 84f 82f
12:00am 11 20 mph 1019.1mb 84f 81f
Tue 06/21 11:54pm 13 17 mph 1019.2mb 84f 82f
11:48pm  -  mph 1019.2mb 84f 81f
11:42pm  -  mph 1019.2mb 84f 82f
11:36pm  -  mph 1019.1mb 84f 82f
11:30pm 11 18 mph 1019.2mb 84f 81f
11:24pm 9 17 mph 1019.3mb 84f 82f
11:18pm  -  mph 1019.4mb 84f 81f
11:12pm  -  mph 1019.4mb 84f 81f
11:06pm  -  mph 1019.4mb 84f 81f
11:00pm  -  mph 1019.4mb - -
10:54pm  -  mph 1019.4mb - -
10:48pm  -  mph 1019.3mb 84f 81f
10:42pm  -  mph 1019.3mb 84f 80f
10:36pm  -  mph 1019.3mb 84f 80f
10:30pm  -  mph 1019.4mb 84f -
10:24pm  -  mph 1019.3mb 84f -
10:18pm 8 16 mph 1019.2mb - -
10:12pm 9 16 mph 1019.1mb - -
10:06pm 10 18 mph 1019mb - -
10:00pm 14 22 mph - 84f -
9:54pm 11 17 mph - 84f -
9:48pm 10 15 mph 1018.7mb 84f -
9:42pm 10 16 mph 1018.7mb 84f -
9:36pm 11 18 mph 1018.6mb 84f -
9:30pm  -  mph 1018.7mb 84f -
9:24pm  -  mph 1018.6mb 84f -
9:18pm  -  mph 1018.7mb 84f 79f
9:12pm  -  mph 1018.7mb 84f 79f
9:06pm  -  mph 1018.7mb 84f 79f
9:00pm  -  mph 1018.7mb 84f -
8:54pm  -  mph 1018.8mb 84f -
8:48pm  -  mph 1018.8mb 84f 81f
8:42pm  -  mph 1018.8mb 84f 81f
8:36pm  -  mph 1018.7mb 84f 81f
8:30pm  -  mph 1018.6mb 84f -
8:24pm  -  mph 1018.5mb 84f -
8:18pm  -  mph 1018.4mb 84f 81f
8:12pm  -  mph 1018.4mb 84f 81f
8:06pm  -  mph 1018.3mb 84f 81f
8:00pm  -  mph 1018.2mb 84f -
7:54pm  -  mph 1018.2mb 84f -
7:48pm 7 10 mph - 84f -
7:42pm 6 11 mph - 85f -
7:36pm 5 8 mph - 85f -
7:30pm  -  mph - 85f -
7:24pm  -  mph - 85f -
7:18pm  -  mph 1017.9mb 85f 82f
7:12pm  -  mph 1017.9mb 85f 82f
7:06pm  -  mph 1017.9mb 85f 82f
7:00pm  -  mph - 85f 82f
6:54pm  -  mph - 84f 82f
6:48pm  -  mph 1017.6mb - -
6:42pm  -  mph 1017.5mb - -
6:36pm  -  mph 1017.5mb - -
6:30pm  -  mph 1017.6mb - -
6:24pm  -  mph 1017.6mb - -
6:18pm  -  mph 1017.7mb 84f 82f
6:12pm  -  mph 1017.8mb 84f 82f
6:06pm  -  mph 1017.7mb 84f 82f
6:00pm  -  mph 1017.7mb - -
5:54pm  -  mph 1017.7mb - -
5:48pm  -  mph 1017.6mb - -
5:42pm  -  mph 1017.7mb - -
5:36pm  -  mph 1017.7mb - -
5:30pm 9 17 mph 1017.6mb 85f 83f
5:24pm 9 17 mph 1017.6mb 85f 82f
5:18pm 11 17 mph 1017.5mb 85f 82f
5:12pm 11 15 mph 1017.5mb 85f 82f
5:06pm 9 15 mph 1017.5mb 85f 82f
5:00pm 8 17 mph 1017.6mb 85f 82f
4:54pm 13 17 mph 1017.6mb 85f 81f
4:48pm 10 20 mph 1017.5mb 85f 81f
4:42pm 17 22 mph 1017.6mb 85f 80f
4:36pm 16 22 mph 1017.7mb 85f 80f
4:30pm 16 26 mph 1017.6mb 85f 80f
4:24pm 22 26 mph 1017.7mb 84f 83f
4:18pm 13 17 mph 1017.6mb 84f 85f
4:12pm 13 21 mph 1017.5mb 85f 85f
4:06pm 11 21 mph 1017.6mb 85f 85f
4:00pm 14 20 mph 1017.5mb 85f 84f
3:54pm 11 20 mph 1017.5mb 85f 85f
3:48pm 14 21 mph 1017.5mb 85f 85f
3:42pm 11 20 mph 1017.5mb 85f 85f
3:36pm 13 21 mph 1017.4mb 85f 84f
3:30pm 15 21 mph 1017.4mb 85f 84f
3:24pm 11 17 mph 1017.4mb 85f 85f
3:18pm 11 18 mph 1017.5mb 85f 84f
3:12pm 15 22 mph 1017.5mb 84f 84f
3:06pm 15 20 mph 1017.5mb 84f 84f
3:00pm 14 21 mph 1017.5mb 84f 85f
2:54pm 14 20 mph 1017.6mb 84f 85f
2:48pm 13 21 mph 1017.6mb 84f 85f
2:42pm 11 20 mph 1017.6mb 84f 85f
2:36pm 14 23 mph 1017.8mb 84f 85f
2:30pm 15 22 mph 1017.8mb 84f 84f
2:24pm 13 20 mph 1017.8mb 84f 84f
2:18pm 14 21 mph 1017.8mb 84f 84f
2:12pm 15 20 mph 1017.9mb 84f 84f
2:06pm 11 17 mph 1017.9mb 84f 84f
2:00pm 10 20 mph 1018mb 84f -
1:54pm 9 17 mph 1018.1mb 84f -
1:48pm 13 18 mph 1018.2mb 84f 84f
1:42pm 13 18 mph 1018.2mb 84f 84f
1:36pm 13 17 mph 1018.2mb 84f 83f
1:30pm 10 15 mph 1018.3mb 84f 83f
1:24pm 13 18 mph 1018.4mb 84f 83f
1:18pm 10 17 mph 1018.5mb 84f 84f
1:12pm 11 18 mph 1018.5mb 84f 83f
1:06pm 13 17 mph 1018.6mb 84f 83f
1:00pm 13 17 mph 1018.6mb 85f 83f
12:54pm 11 16 mph 1018.7mb 85f 83f
12:48pm 9 15 mph 1018.7mb 85f 83f
12:42pm 14 17 mph 1018.7mb 85f 81f
12:36pm 14 17 mph 1018.7mb 85f 81f
12:30pm 14 20 mph 1018.9mb 85f 81f
12:24pm 16 22 mph 1019.1mb 85f 80f
12:18pm 22 24 mph 1019.2mb 85f 80f
12:12pm 18 28 mph 1019.2mb 84f 79f
12:06pm 22 30 mph 1019.4mb 84f 79f
12:00pm 22 28 mph 1019.4mb 84f 79f
11:54am 23 30 mph 1019.4mb 84f 81f
11:48am 15 22 mph 1019.3mb 84f 84f
11:42am 16 22 mph 1019.1mb 84f 84f